User: anonymous   Login
Location: Newark
(17.9939°S, 31.0481°E)
Time: 16:41:58
(UTC+00:00)
Language:

Transit 4A - Orbit

View from above orbital plane
View from above orbital plane
View from above satellite
View from above satellite

Ground track
Ground track

The orbit data is extracted from the following two-line orbital elements,

1   116U 61015A   19316.15870976 -.00000044  00000-0  24918-4 0  9991
2   116  66.8118  21.8475 0074187 166.9547 193.3474 13.91761739961938
Epoch (UTC): 12 November 2019 03:48:32
Eccentricity: 0.0074187
inclination: 66.8118°
perigee height: 868 km
apogee height: 976 km
right ascension of ascending node: 21.8475°
argument of perigee: 166.9547°
revolutions per day: 13.91761739
mean anomaly at epoch: 193.3474°
orbit number at epoch: 96193

The dashed part of the orbit path shows where the satellite is in the earth's shadow,  

DLR